* Astronomy

Members Login
Username 
 
Password 
    Remember Me  
Post Info TOPIC: NAVSTAR 47 (PAM-D) rocket body re-entry


L

Posts: 131433
Date:
RE: NAVSTAR 47 (PAM-D) rocket body re-entry
Permalink  
 


Update
The Delta-7925 rocket body (PAM-D) is predicted to re-enter the Earths atmosphere on the 6th June, 2011 @ --:-- GMT  ± -- hours.

NAVSTAR 47 RB (PAM-D)
1 26362U 00025C 11130.23113144 .00681794 33789-5 73937-3 0 3605
2 26362 038.6623 099.0762 0580805 243.3426 110.6731 14.95212431336993

Period:       96.46 minutes
Inclination: 38.66°
Apogee:     1000 km
Perigee:     178 km
Revolution Number: -
Predicted Location:  -



__________________


L

Posts: 131433
Date:
Permalink  
 

A Delta-7925 rocket body (PAM-D) that was launched on the 11th May, 2000, from the Cape Canaveral, for the NAVSTAR 47 (USA 150) GPS IIR-4 satellite mission is predicted to re-enter the Earths atmosphere on the 13th June, 2011 @ --:-- GMT  ± -- hours.

NAVSTAR 47 RB (PAM-D)
1 26362U 00025C 11111.66984315 .00787711 44624-5 11527-2 0 3272
2 26362 038.6626 203.8556 0709008 106.1005 261.8934 14.63019024334247


Period:       98.45 minutes
Inclination: 38.66°
Apogee:     1186 km
Perigee:     183 km
Revolution Number: -
Predicted Location:  -



__________________
«First  <  1 2 | Page of 2  sorted by
 
Quick Reply

Please log in to post quick replies.



Create your own FREE Forum
Report Abuse
Powered by ActiveBoard